Regional Weather Roundup
Issued by NWS

Home | Current Version | Previous Version | Text Only | Print | Product List | Glossary Off
Versions: 1 2 3 4 5 6 7 8 9 10 11 12 13 14 15 16 17 18 19 20 21 22 23 24 25 26 27 28 29 30 31 32 33 34 35 36 37 38 39 40 41 42 43 44 45 46 47 48 49 50

000
ASUS43 KLOT 260408
RWRIL

ILLINOIS REGIONAL WEATHER ROUNDUP
NATIONAL WEATHER SERVICE CHICAGO/ROMEOVILLE IL
1000 PM CST SAT FEB 25 2017

NOTE: "FAIR" INDICATES FEW OR NO CLOUDS BELOW 12,000 FEET WITH NO
SIGNIFICANT WEATHER AND/OR OBSTRUCTIONS TO VISIBILITY.

* THESE STATIONS ARE NOT UNDER NWS QUALITY CONTROL. THEY ALSO MAY NOT
  REPORT WEATHER SUCH AS PRECIPITATION OR FOG.

ILZ001-002-007-009-015-016-024-260500-
NORTHWEST ILLINOIS

CITY           SKY/WX    TMP DP  RH WIND       PRES   REMARKS
MOLINE         CLOUDY    27  18  69 SW3       30.06S
STERLING*      CLOUDY    24  19  81 W8        30.06S WCI  15
$$

ILZ003-004-008-010-011-017-018-260500-
NORTH CENTRAL ILLINOIS

CITY           SKY/WX    TMP DP  RH WIND       PRES   REMARKS
ROCKFORD       CLOUDY    24  15  68 W5        30.06R WCI  18
FREEPORT*      CLEAR     23  16  75 W6        30.05S WCI  15
ROCHELLE*      CLOUDY    24  19  78 W7        30.05S WCI  16
DE KALB*       CLOUDY    24  17  75 W8        30.04S WCI  15
PERU*          CLOUDY    25  18  75 W8        30.08R WCI  16
$$

ILZ005-006-012>014-019>023-260500-
NORTHEAST ILLINOIS

CITY           SKY/WX    TMP DP  RH WIND       PRES   REMARKS
CHICAGO-OHARE  CLOUDY    26  14  60 W9        30.03R WCI  17
CHICAGO-MIDWAY CLOUDY    26  13  57 W9        30.04R WCI  17
AURORA         CLOUDY    23  17  78 W6        30.04S WCI  16
LANSING*       CLEAR     25  16  69 W7        30.05R WCI  17
JOLIET*        CLOUDY    26  18  72 W3        30.06S
WAUKEGAN       CLOUDY    23  14  68 VRB5      30.01R WCI  17
DUPAGE AIRPORT CLOUDY    25  13  60 W12       30.03R WCI  14
KANKAKEE*      PTCLDY    25  18  73 CALM      30.07R
WHEELING       CLOUDY    24  13  62 W7        30.04R WCI  16
MORRIS*        CLOUDY    26  19  76 W6        30.05R WCI  19
ROMEOVILLE*    CLOUDY    24  18  77 NW7       30.04S WCI  16
NORTHERLY ISL    N/A     27  16  63 W12         N/A  WCI  17
$$

LMZ740>746-260500-
SOUTHERN LAKE MICHIGAN

STATION/POSITION SKY/WX   TEMP    WIND        PRES    VSBY  WAVE
                          AIR SEA DIR/SP/G                  HT/PER
                          (F)     (DEG/KT/KT) (MB)    (MI)  (FT/S)
HARRISON CRIB              27     280/ 14/ 17   N/A
BURNHAM HARBOR             26     280/  9/ 14   N/A
CALUMET HARBOR             25     260/  7/ 10 1016.5R
BURNS HARBOR               27     300/ 12/ 18 1017.3R
MICHIGAN CITY              27     280/ 17/ 20   N/A
$$

ILZ025>027-034>036-040-047-049-050-058-095>099-260500-
WEST-CENTRAL ILLINOIS

CITY           SKY/WX    TMP DP  RH WIND       PRES   REMARKS
QUINCY         CLEAR     26  14  60 S6        30.09R WCI  19
GALESBURG*     CLOUDY    25  20  83 CALM      30.08S
MACOMB*        CLOUDY    26  21  82 CALM      30.11R
JACKSONVILLE*  CLEAR     25  15  64 S5        30.11S WCI  19
PITTSFIELD*    CLEAR     25  18  74 S5        30.11S WCI  19
$$

ILZ028>032-037-038-041>044-048-051>054-059>061-260500-
CENTRAL ILLINOIS

CITY           SKY/WX    TMP DP  RH WIND       PRES   REMARKS
PONTIAC        CLOUDY    27  21  77 W8        30.09R WCI  19
BLOOMINGTON    CLEAR     25  17  72 W10       30.09R WCI  15
DECATUR        CLEAR     28  13  53 W8        30.11R WCI  20
PEORIA         PTCLDY    26  17  68 W3        30.09S
LACON*         CLEAR     26  18  71 CALM      30.08S
LINCOLN*       CLEAR     29  16  58 CALM      30.11S
SPRINGFIELD    CLEAR     27  13  55 SW3       30.12R
TAYLORVILLE    CLEAR     25  13  59 W5        30.13R WCI  19
$$

ILZ033-039-045-046-055>057-062-063-260500-
EAST-CENTRAL ILLINOIS

CITY           SKY/WX    TMP DP  RH WIND       PRES   REMARKS
CHAMPAIGN      CLEAR     22  14  71 W7        30.09R WCI  13
RANTOUL*       CLOUDY    28  21  76 W10       30.08R WCI  18
MATTOON        CLEAR     25  14  63 W9        30.10R WCI  15
PARIS*         CLEAR     24  16  71 W8        30.10S WCI  15
$$

ILZ079-100>102-260500-
SOUTHWEST ILLINOIS

CITY           SKY/WX    TMP DP  RH WIND       PRES   REMARKS
ALTON          CLEAR     27  12  54 CALM      30.14R
BELLEVILLE     CLEAR     27  14  58 CALM      30.14R
CAHOKIA*       CLEAR     27  13  55 CALM      30.14S
SPARTA*        CLEAR     27  16  61 CALM      30.16S
$$

ILZ064>066-069>071-074>076-080>082-084>086-088>090-092>094-260500-
SOUTH-CENTRAL ILLINOIS

CITY           SKY/WX    TMP DP  RH WIND       PRES   REMARKS
CARBONDALE     CLEAR     27  17  66 CALM      30.16R
CAIRO*         CLEAR     32  17  54 CALM      30.16S
EFFINGHAM*     CLEAR     27  19  73 W6        30.15R WCI  20
MARION         PTCLDY    25   7  46 CALM      30.17S
MT. VERNON     CLEAR     26  18  71 CALM      30.16R
CENTRALIA*     CLEAR     29  19  66 SW3       30.14S
SALEM*         CLEAR     29  17  59 W3        30.14R
METROPOLIS*    CLEAR     29  20  69 CALM      30.17R
$$

ILZ067-068-072-073-078-083-087-091-260500-
SOUTHEAST ILLINOIS

CITY           SKY/WX    TMP DP  RH WIND       PRES   REMARKS
LAWRENCEVILLE  CLEAR     30  18  60 W6        30.13R WCI  24
FLORA*         CLEAR     29  17  60 W3        30.15R
FAIRFIELD*     CLEAR     29  18  64 CALM      30.14S
HARRISBURG*    PTCLDY    28  21  77 NW3       30.16S
ROBINSON*      CLEAR     27  18  70 W7        30.13S WCI  19
CARMI*         CLEAR     28  18  65 W5        30.15R WCI  23
$$

ABBREVIATIONS USED IN REMARKS
   TC - TEMPERATURE IN CELSIUS
  WCI - WIND CHILL INDEX
   HX - HEAT INDEX
  VSB - VISIBILITY
$$





USA.gov is the U.S. government's official web portal to all federal, state and local government web resources and services.